Regional Weather Roundup
Issued by NWS

Home | Current Version | Previous Version | Text Only | Print | Product List | Glossary Off
Versions: 1 2 3 4 5 6 7 8 9 10 11 12 13 14 15 16 17 18 19 20 21 22 23 24 25 26 27

000
ASUS45 KBOU 271407
RWRCO

WEATHER ROUNDUP FOR COLORADO
NATIONAL WEATHER SERVICE DENVER/BOULDER CO
800 AM MDT FRI MAY 27 2016

NOTE: "FAIR" INDICATES FEW OR NO CLOUDS BELOW 12000 FEET WITH NO
SIGNIFICANT WEATHER AND/OR OBSTRUCTIONS TO VISIBILITY.

COZ001>005-013-030-031-271500-
...NORTHWEST COLORADO...

CITY           SKY/WX    TMP DP  RH WIND       PRES   REMARKS
CRAIG          CLOUDY    44  39  82 CALM      30.00S
HAYDEN         FAIR      43  36  75 CALM      30.01R
MEEKER         FAIR      46  39  76 CALM      30.00R
MOUNT WERNER   NOT AVBL
STEAMBOAT SPGS FAIR      39  35  87 CALM      30.00S
WALDEN         PTSUNNY   37  32  81 NW6       30.03S
$$

COZ006>008-011-271500-
...WEST CENTRAL VALLEYS...

CITY           SKY/WX    TMP DP  RH WIND       PRES   REMARKS
GRAND JUNCTION FAIR      54  40  59 S5        29.94R
MONTROSE       CLOUDY    49  39  68 SE6       30.00R
EAGLE          PTSUNNY   43  41  93 CALM      30.03S
RIFLE          FAIR      50  41  71 CALM      29.97R
DELTA          FAIR      51  40  65 CALM      29.98S
NUCLA          FAIR      46  34  61 SE3       30.03S
$$

COZ017>023-064>068-271500-
...SOUTHWEST COLORADO...

CITY           SKY/WX    TMP DP  RH WIND       PRES   REMARKS
DURANGO        FAIR      47  33  58 E5        29.96R
CORTEZ         FAIR      47  35  63 NE5       29.99R
PAGOSA SPRINGS FAIR      42  34  75 CALM      30.00S
TELLURIDE      CLOUDY    37  36  98 CALM      30.09R
WOLF CREEK PAS FAIR      28  23  80 NE12G20   30.13R WCI  18
$$

COZ009-010-012-014-032>034-037-058>063-271500-
...CENTRAL COLORADO...

CITY           SKY/WX    TMP DP  RH WIND       PRES   REMARKS
ASPEN          PTSUNNY   42  37  82 CALM      30.02R
BUENA VISTA    CLOUDY    44  32  64 NW16      29.96R
COPPER MTN     NOT AVBL
BERTHOUD PASS  CLOUDY    23  12  63 N32       30.07S WCI   5
COTTONWOOD PAS CLOUDY    41  30  65 CALM      30.02S
GUNNISON       FAIR      41  34  75 CALM      30.02R
KREMMLING      CLOUDY    43  34  70 E5        30.02R
LEADVILLE      FAIR      34  27  75 N10       30.03R WCI  26
MONARCH PASS   FOG       28  27  93 W13       30.19R VSB<1/4 WCI  18
SALIDA         FAIR      43  37  81 SW7       30.04R
SUNLIGHT       FAIR      34  32  93 NE5       30.13S WCI  30
WILKERSON PASS PTSUNNY   28  27  93 N16G30    30.05S WCI  17
$$

COZ069>075-271500-
...SAN LUIS VALLEY/SANGRE DE CRISTO MOUNTAINS...

CITY           SKY/WX    TMP DP  RH WIND       PRES   REMARKS
ALAMOSA        CLOUDY    39  37  92 SW5       29.97S
LA VETA PASS   SNOW      30  30 100 SW3       30.01R VSB 1/2
SAGUACHE       PTSUNNY   36  34  93 S3        30.00R
$$

COZ035-036-038>040-271500-
...NORTHERN COLORADO FRONT RANGE...

CITY           SKY/WX    TMP DP  RH WIND       PRES   REMARKS
DENVER INTL AP PTSUNNY   50  42  74 N10       29.85R
DMNS CITY PARK   N/A     54  38  54 N15G28    29.86R
AURORA         PTSUNNY   49  43  81 NW16G22   29.87R
FRONT RANGE AP PTSUNNY   46  45  93 N12       29.87R
ERIE MUNI ARPT FAIR      54  40  59 NW7       29.86S
BOULDER MUN AP NOT AVBL
CENTENNIAL     PTSUNNY   49  41  74 NW12      29.87R
BROOMFIELD     PTSUNNY   54  39  58 NW12      29.88S
FORT COLLINS   FAIR      54  39  58 NW15      29.87S
LONGMONT       FAIR      56  43  61 NW3       29.88S
$$

COZ041-046-047-076>085-087-088-271500-
...PIKES PEAK/PALMER DIVIDE AND SOUTHERN FOOTHILLS...

CITY           SKY/WX    TMP DP  RH WIND       PRES   REMARKS
COLO. SPRINGS  PTSUNNY   49  44  83 NW18G30   29.86R
A. F. ACADEMY  FAIR      46  37  71 NW22G31   29.84S
SCHRIEVER AFB  NOT AVBL
ELLICOTT       RAIN     N/A N/A N/A N18G24    29.83R
FALCON         PTSUNNY   45  40  82 N17G28    29.86R
FORT CARSON    PTSUNNY   50  40  68 N13G21    29.83R
LIMON          LGT RAIN  46  44  93 N23G33    29.79R
MONUMENT HILL  PTSUNNY   41  37  87 NW21G26   29.89S
TRINIDAD       LGT RAIN  43  40  89 N10       29.90R
$$

COZ042>045-048>051-090-091-271500-
...NORTHEAST COLORADO...

CITY           SKY/WX    TMP DP  RH WIND       PRES   REMARKS
GREELEY ARPT   FAIR      52  43  71 N14       29.87R
AKRON          LGT RAIN  48  47  96 N17       29.79S FOG
BURLINGTON     PTSUNNY   54  48  80 N7        29.74R
WRAY           CLOUDY    54  52  94 NE8       29.76S
STERLING       RAIN      50  50 100 N16G24    29.79S
HOLYOKE        NOT AVBL
FORT MORGAN    RAIN      47  46  93 N16       29.84R
$$

COZ086-089-092>099-271500-
...SOUTHEAST COLORADO...

CITY           SKY/WX    TMP DP  RH WIND       PRES   REMARKS
PUEBLO         CLOUDY    51  46  83 W8        29.82F
LA JUNTA       LGT RAIN  48  44  86 W16G23    29.80F
LAMAR          CLOUDY    52  45  77 W21G29    29.74F
SPRINGFIELD      N/A     52  40  63 W25G32    29.79F
$$




USA.gov is the U.S. government's official web portal to all federal, state and local government web resources and services.